Location: Tierra del Sol
(32.6128°N, 116.3319°W)
Time: 14:53:41
(UTC-07:00)

Amateur Radio Satellites - All Passes

Search period start: 16 April 2014 14:23
Search period end: 17 April 2014 14:23
Location: Tierra del Sol, 32.6128°N, 116.3319°W

Satellite Date Start Highest point End Downlink Frequencies (MHz)
Time Altitude Azimuth
Oscar 19 16 Apr 14:26:29 14:31:02 32° 262° (W) 14:35:38 437.125 CW, 437.150 USB
TMSAT-1 16 Apr 14:27:08 14:31:19 25° 69° (ENE) 14:35:31 436.925 FM
Oscar 16 16 Apr 14:34:39 14:38:48 25° 264° (W) 14:42:59 437.025 USB, Beacon 2401.1428
AO-Echo 16 Apr 14:53:38 14:58:40 44° 261° (W) 15:03:38 ?
Oscar 10/S400 16 Apr 14:56:06 15:55:20 15° 276° (W) 17:23:34 145.825 - 145.975 CW/USB, Beacon 145.810 USB
AO-7 16 Apr 15:00:10 15:06:12 23° 59° (ENE) 15:12:14 29.400 - 29.500 MHz
PANSAT 16 Apr 15:01:48 15:04:06 15° 202° (SSW) 15:06:24 not established
JAS-1B 16 Apr 15:02:27 15:10:01 37° 70° (ENE) 15:16:31 435.800 - 435.900 CW/SSB
Uribyol 2 16 Apr 15:03:53 15:08:05 25° 263° (W) 15:12:19 436.500 FM
ISS 16 Apr 15:06:08 15:08:46 22° 128° (SE) 15:11:24 145.800 FM
Uosat F 16 Apr 15:10:29 15:14:22 23° 68° (ENE) 15:18:15 435.120 FM
Gurwin Techsat 1B 16 Apr 15:15:18 15:20:36 76° 258° (WSW) 15:25:55 435.225 FM
SO-50 16 Apr 15:44:35 15:48:54 50° 115° (ESE) 15:53:15 436.795 FM
OPAL 16 Apr 15:53:44 15:58:50 57° 288° (WNW) 16:03:56 ?
TMSAT-1 16 Apr 16:06:17 16:11:01 33° 262° (W) 16:15:46 436.925 FM
RS-15 16 Apr 16:06:41 16:17:14 49° 55° (NE) 16:28:00 29.354 - 29.394 USB, Beacon 29.352 USB
ISS 16 Apr 16:42:31 16:45:24 27° 322° (NW) 16:48:19 145.800 FM
Uosat F 16 Apr 16:48:26 16:52:55 33° 262° (W) 16:57:26 435.120 FM
AO-7 16 Apr 16:50:00 16:58:13 69° 255° (WSW) 17:06:29 29.400 - 29.500 MHz
JAS-1B 16 Apr 16:52:19 17:00:24 40° 260° (W) 17:07:21 435.800 - 435.900 CW/SSB
SO-50 16 Apr 17:27:08 17:29:44 15° 310° (NW) 17:32:20 436.795 FM
RS-15 16 Apr 18:19:20 18:29:16 41° 252° (WSW) 18:39:32 29.354 - 29.394 USB, Beacon 29.352 USB
Hamsat 16 Apr 18:23:30 18:27:40 86° 259° (W) 18:31:54 145.90 MHz
UOSAT-12 16 Apr 18:25:06 18:29:34 66° 300° (WNW) 18:34:11 437.025 FM, 437.400 FM
JAS-2 16 Apr 18:25:29 18:30:50 32° 71° (ENE) 18:35:43 435.800 - 435.900 CW/SSB, 435.910 FM
STRAND 1 16 Apr 18:27:40 18:31:17 19° 95° (E) 18:34:53 ?
SO-67 16 Apr 18:43:41 18:46:24 21° 73° (ENE) 18:49:07 435.3500 MHz FM
STRAND 1 16 Apr 20:05:52 20:10:32 38° 288° (WNW) 20:15:12 ?
JAS-2 16 Apr 20:10:35 20:15:51 28° 262° (W) 20:20:40 435.800 - 435.900 CW/SSB, 435.910 FM
SO-67 16 Apr 20:17:24 20:19:29 15° 265° (W) 20:21:34 435.3500 MHz FM
Saudisat 1A 16 Apr 20:39:39 20:43:44 36° 57° (ENE) 20:47:46 436.775 MHz
HO-68 16 Apr 20:43:58 20:50:51 54° 70° (ENE) 20:57:45 435.675 MHz FM
Oscar 11 16 Apr 21:25:20 21:29:20 39° 73° (ENE) 21:33:20 145.825 FM, Beacon 2401.500 USB
MaSat-1 16 Apr 22:11:04 22:14:16 51° 292° (WNW) 22:17:00 437.345 MHz
Saudisat 1A 16 Apr 22:20:13 22:23:00 17° 251° (WSW) 22:25:47 436.775 MHz
HO-68 16 Apr 22:33:23 22:38:46 23° 264° (W) 22:44:12 435.675 MHz FM
FUNcube-1 16 Apr 22:42:37 22:46:54 83° 258° (WSW) 22:51:06 145.950 - 145.970 MHz USB
Oscar 11 16 Apr 23:03:32 23:05:38 13° 266° (W) 23:07:45 145.825 FM, Beacon 2401.500 USB
ISS 16 Apr 23:14:31 23:17:42 38° 40° (NE) 23:20:51 145.800 FM
PCSat 16 Apr 23:36:35 23:38:29 12° 103° (ESE) 23:40:24 145.825 MHz
SO-50 17 Apr 00:21:38 00:24:25 15° 50° (NE) 00:27:12 436.795 FM
Sapphire 17 Apr 00:31:06 00:36:08 41° 110° (ESE) 00:41:12 437.095 MHz 1200 baud AX-25 AFSK
Oscar 10/S400 17 Apr 00:44:03 00:57:05 19° 138° (SE) 01:14:04 145.825 - 145.975 CW/USB, Beacon 145.810 USB
ISS 17 Apr 00:52:16 00:54:10 14° 234° (SW) 00:56:05 145.800 FM
Oscar 19 17 Apr 01:05:46 01:07:32 12° 92° (E) 01:09:17 437.125 CW, 437.150 USB
Oscar 16 17 Apr 01:12:22 01:15:26 16° 94° (E) 01:18:28 437.025 USB, Beacon 2401.1428
PCSat 17 Apr 01:15:52 01:21:14 68° 296° (WNW) 01:26:38 145.825 MHz
OPAL 17 Apr 01:28:02 01:30:52 15° 63° (ENE) 01:33:43 ?
Uribyol 2 17 Apr 01:42:34 01:45:35 16° 94° (E) 01:48:35 436.500 FM
SO-50 17 Apr 02:00:43 02:05:16 53° 245° (WSW) 02:09:52 436.795 FM
Sapphire 17 Apr 02:15:29 02:19:40 23° 305° (NW) 02:23:53 437.095 MHz 1200 baud AX-25 AFSK
KITSAT 1 17 Apr 02:19:34 02:26:47 37° 107° (ESE) 02:34:01 435.175 FM
AO-27 17 Apr 02:19:51 02:24:39 37° 99° (E) 02:29:24 436.795 MHz FM
ITAMSAT 1 17 Apr 02:31:07 02:36:07 48° 100° (E) 02:41:06 435.822 SSB
Oscar 19 17 Apr 02:42:04 02:47:13 64° 285° (WNW) 02:52:20 437.125 CW, 437.150 USB
TMSAT-1 17 Apr 02:48:41 02:51:13 13° 93° (E) 02:53:44 436.925 FM
Oscar 16 17 Apr 02:49:59 02:54:58 49° 287° (WNW) 02:59:57 437.025 USB, Beacon 2401.1428
UOSAT-12 17 Apr 02:59:17 03:03:28 31° 55° (NE) 03:07:36 437.025 FM, 437.400 FM
OPAL 17 Apr 03:04:25 03:09:15 52° 258° (WSW) 03:14:11 ?
AO-Echo 17 Apr 03:05:38 03:10:26 90° 272° (W) 03:15:07 ?
Uribyol 2 17 Apr 03:20:17 03:25:15 49° 287° (WNW) 03:30:13 436.500 FM
Gurwin Techsat 1B 17 Apr 03:36:14 03:41:30 65° 101° (ESE) 03:46:45 435.225 FM
AO-27 17 Apr 04:00:04 04:03:52 21° 292° (WNW) 04:07:39 436.795 MHz FM
ITAMSAT 1 17 Apr 04:12:00 04:15:11 17° 294° (WNW) 04:18:21 435.822 SSB
KITSAT 1 17 Apr 04:14:23 04:21:58 43° 304° (WNW) 04:29:37 435.175 FM
TMSAT-1 17 Apr 04:26:14 04:31:25 57° 286° (WNW) 04:36:35 436.925 FM
UOSAT-12 17 Apr 04:39:42 04:43:26 24° 250° (WSW) 04:47:08 437.025 FM, 437.400 FM
JAS-1B 17 Apr 04:42:18 04:47:58 79° 103° (ESE) 04:53:57 435.800 - 435.900 CW/SSB
AO-7 17 Apr 04:56:41 05:04:49 56° 103° (ESE) 05:12:56 29.400 - 29.500 MHz
Uosat F 17 Apr 05:00:09 05:05:09 73° 285° (WNW) 05:10:07 435.120 FM
Gurwin Techsat 1B 17 Apr 05:18:30 05:20:52 13° 296° (WNW) 05:23:13 435.225 FM
STRAND 1 17 Apr 05:39:44 05:43:13 19° 67° (ENE) 05:46:42 ?
Hamsat 17 Apr 06:14:28 06:18:00 24° 96° (E) 06:21:32 145.90 MHz
RS-15 17 Apr 06:24:03 06:34:52 50° 109° (ESE) 06:45:16 29.354 - 29.394 USB, Beacon 29.352 USB
AO-7 17 Apr 06:50:21 06:57:05 29° 299° (WNW) 07:03:50 29.400 - 29.500 MHz
STRAND 1 17 Apr 07:17:13 07:22:03 42° 261° (W) 07:26:53 ?
JAS-2 17 Apr 07:22:34 07:27:41 41° 100° (E) 07:33:19 435.800 - 435.900 CW/SSB, 435.910 FM
SO-67 17 Apr 07:44:53 07:48:18 49° 99° (E) 07:51:41 435.3500 MHz FM
Hamsat 17 Apr 07:50:25 07:53:50 23° 289° (WNW) 07:57:15 145.90 MHz
PANSAT 17 Apr 07:59:44 08:00:20 10° 155° (SSE) 08:00:55 not established
MaSat-1 17 Apr 08:16:29 08:19:33 52° 249° (WSW) 08:23:12 437.345 MHz
HO-68 17 Apr 08:20:56 08:22:34 11° 91° (E) 08:24:12 435.675 MHz FM
RS-15 17 Apr 08:36:43 08:47:15 43° 308° (NW) 08:57:32 29.354 - 29.394 USB, Beacon 29.352 USB
JAS-2 17 Apr 09:08:37 09:12:34 21° 291° (WNW) 09:16:45 435.800 - 435.900 CW/SSB, 435.910 FM
Oscar 11 17 Apr 09:20:44 09:21:08 10° 92° (E) 09:21:31 145.825 FM, Beacon 2401.500 USB
Sapphire 17 Apr 09:25:04 09:27:56 14° 51° (NE) 09:30:48 437.095 MHz 1200 baud AX-25 AFSK
PANSAT 17 Apr 09:36:40 09:40:01 28° 166° (SSE) 09:43:23 not established
HO-68 17 Apr 10:03:47 10:11:00 86° 105° (ESE) 10:18:12 435.675 MHz FM
PCSat 17 Apr 10:08:37 10:13:37 36° 59° (ENE) 10:18:34 145.825 MHz
FUNcube-1 17 Apr 10:36:46 10:40:21 26° 97° (E) 10:43:58 145.950 - 145.970 MHz USB
Saudisat 1A 17 Apr 10:42:15 10:46:04 28° 112° (ESE) 10:49:53 436.775 MHz
Oscar 11 17 Apr 10:53:19 10:57:33 52° 285° (WNW) 11:01:47 145.825 FM, Beacon 2401.500 USB
RS-15 17 Apr 11:00:20 11:03:45 12° 338° (NNW) 11:07:09 29.354 - 29.394 USB, Beacon 29.352 USB
Sapphire 17 Apr 11:06:29 11:11:52 71° 247° (WSW) 11:17:14 437.095 MHz 1200 baud AX-25 AFSK
PANSAT 17 Apr 11:16:15 11:19:57 45° 178° (S) 11:23:38 not established
PCSat 17 Apr 11:52:30 11:56:46 24° 254° (WSW) 12:01:01 145.825 MHz
HO-68 17 Apr 11:53:58 11:57:45 15° 301° (WNW) 12:01:34 435.675 MHz FM
KITSAT 1 17 Apr 12:12:13 12:19:54 45° 57° (ENE) 12:27:31 435.175 FM
FUNcube-1 17 Apr 12:13:26 12:16:36 21° 289° (WNW) 12:19:48 145.950 - 145.970 MHz USB
Oscar 19 17 Apr 12:19:10 12:20:46 11° 64° (ENE) 12:22:22 437.125 CW, 437.150 USB
Saudisat 1A 17 Apr 12:22:00 12:25:37 24° 306° (NW) 12:29:15 436.775 MHz
Oscar 16 17 Apr 12:25:40 12:28:31 15° 65° (ENE) 12:31:22 437.025 USB, Beacon 2401.1428
PANSAT 17 Apr 12:56:23 12:59:54 34° 191° (S) 13:03:25 not established
Uribyol 2 17 Apr 12:56:39 12:59:39 16° 66° (ENE) 13:02:40 436.500 FM
RS-15 17 Apr 13:21:56 13:23:57 11° 19° (NNE) 13:25:59 29.354 - 29.394 USB, Beacon 29.352 USB
AO-27 17 Apr 13:33:42 13:38:25 37° 71° (ENE) 13:43:09 436.795 MHz FM
ITAMSAT 1 17 Apr 13:44:44 13:49:41 47° 73° (ENE) 13:54:37 435.822 SSB
Oscar 19 17 Apr 13:54:21 13:59:27 70° 258° (WSW) 14:04:36 437.125 CW, 437.150 USB
Oscar 16 17 Apr 14:02:23 14:07:22 53° 260° (W) 14:12:24 437.025 USB, Beacon 2401.1428
TMSAT-1 17 Apr 14:05:27 14:08:15 15° 65° (ENE) 14:11:03 436.925 FM
KITSAT 1 17 Apr 14:07:58 14:15:01 34° 253° (WSW) 14:22:02 435.175 FM
ISS 17 Apr 14:19:34 14:20:41 11° 125° (SE) 14:21:48 145.800 FM
